星链-1791 (STARLINK-1791 )

导读 | 豆包AI

STARLINK-1791是美国太空探索技术公司星链计划中的卫星,于2020年10月18日发射升空,属于星链低轨互联网卫星星座组网的组成部分。该卫星运行在近地轨道,旨在为全球提供高速低延迟的互联网接入服务,推进星链星座全球覆盖的组网进程。

基本信息
目录编号:
46692
目录名称:
STARLINK-1791
国际标识:
2020-073Y
轨道中心:
EARTH
卫星名称:
星链-1791
卫星全名:
星链-1791 (STARLINK-1791 )
卫星状态:
已陨落 最后检测时间 2025-01-29
发射日期:
2020-10-18 UTC
国别 :
美国 (US)
星等 :
--
轨道信息
数据来源 国际轨道数据
星历时间: 2025-01-29T19:46:27+0800
轨道信息已过期429天
半长轴: 6531.034km
偏心率: 0.0007692
轨道倾角: 53.026°
近地点辐角 244.407°
升交点赤经 240.192°
平近点角 216.478°
近地点: 147.875km
远地点: 157.923km
周期: 87.545分钟
每日圈数: 16.448638
详细信息
固有亮度:
5
最大亮度:
2.5
卫星平台:
Starlink V1.0
覆盖范围:
全球
运营商:
太空探索技术公司
运营商所在国:
美国
制造商(研发单位):
太空探索技术公司
制造商所在国:
美国
使用方式:
暂无
卫星简介
星链(Starlink)计划是由太空探索技术公司(SpaceX)提出的一个巨型低轨卫星互联网星座项目,计划在2019年至2024年间在太空搭建由约1.2万颗卫星组成的“星链”网络,其中1584颗将部署在地球上空550千米处的近地轨道,并从2020年开始工作。该卫星仍在工作。